Tracking 19145 objects as of 25-Apr-2018
HD Live streaming from Space Station
objects crossing your sky now

RADUGA 7

Track RADUGA 7 now!
RADUGA 7 is classified as:


NORAD ID: 12003
Int'l Code: 1980-081A
Perigee: 35,734.8 km
Apogee: 35,820.8 km
Inclination: 12.5 °
Period: 1,435.3 minutes
Semi major axis: 42148 km
RCS: 7.9432 m2 (large)
Launch date: October 5, 1980
Source: Commonwealth of Independent States (former USSR) (CIS)
Launch site: TYURATAM MISSILE AND SPACE COMPLEX (TTMTR)
aabbcc
Your satellite tracking list
Your tracking list is empty




NASA's NSSDC Master Catalog

Two Line Element Set (TLE):
1 12003U 80081A   18114.90923061 -.00000303  00000-0  00000+0 0  9994
2 12003  12.4629 321.9068 0010201 250.3234 283.1266  1.00328714 93583
Source of the keplerian elements: AFSPC